Location: ????????
(54.6123°N, 39.2099°E)
Time: 02:12:25
(UTC+00:00)

ATLAS 3B R/B - Pass Details

Date: 19 May 2025
Orbit: 935 x 1258 km, 63.8° (Epoch: 14 June)

Event Time Altitude Azimuth Distance (km) Brightness Sun altitude
Rises 23:18:36 0° 260° (W) 4,086 5.4 -11.2°
Reaches altitude 10° 23:21:25 10° 266° (W) 3,160 4.8 -11.0°
Maximum altitude 23:28:53 51° 341° (NNW) 1,546 3.8 -10.5°
Drops below altitude 10° 23:36:33 10° 56° (NE) 3,249 6.4 -9.9°
Sets 23:39:29 0° 62° (ENE) 4,209 7.0 -9.6°
